Hourly Weather Kakushkino

Today, 9 March, Tuesday

Time Temperature Precipitation Wind Pressure Humidity
00:00 -15°C° 0 mm 2 mps 739 mmHg 95%
01:00 -15°C° 0 mm 2 mps 740 mmHg 96%
02:00 -15°C° 0 mm 2 mps 740 mmHg 98%
03:00 -16°C° 0 mm 2 mps 740 mmHg 97%
04:00 -16°C° 0 mm 2 mps 741 mmHg 97%
05:00 -16°C° 0 mm 2 mps 741 mmHg 96%
06:00 -16°C° 0 mm 2 mps 741 mmHg 95%
07:00 -16°C° 0 mm 2 mps 742 mmHg 94%
08:00 -16°C° 0 mm 2 mps 742 mmHg 92%
09:00 -14°C° 0 mm 2 mps 742 mmHg 88%
10:00 -14°C° 0 mm 3 mps 743 mmHg 84%
11:00 -13°C° 0 mm 3 mps 743 mmHg 80%
12:00 -12°C° 0 mm 3 mps 743 mmHg 79%
13:00 -12°C° 0 mm 3 mps 743 mmHg 78%
14:00 -10°C° 0 mm 3 mps 743 mmHg 77%
15:00 -12°C° 0 mm 3 mps 744 mmHg 80%
16:00 -10°C° 0 mm 2 mps 744 mmHg 83%
17:00 -12°C° 0 mm 2 mps 744 mmHg 85%
18:00 -13°C° 0 mm 2 mps 745 mmHg 87%
19:00 -12°C° 0 mm 1 mps 745 mmHg 89%
20:00 -13°C° 0 mm 1 mps 745 mmHg 90%
21:00 -14°C° 0 mm 1 mps 746 mmHg 91%
22:00 -15°C° 0 mm 1 mps 746 mmHg 92%
23:00 -15°C° 0 mm 1 mps 746 mmHg 93%

Tomorrow, 10 March, Wednesday

Time Temperature Precipitation Wind Pressure Humidity
00:00 -15°C° 0 mm 0 mps 746 mmHg 93%
01:00 -15°C° 0 mm 0 mps 746 mmHg 93%
02:00 -14°C° 0 mm 0 mps 746 mmHg 93%
03:00 -14°C° 0.2 mm 1 mps 746 mmHg 94%
04:00 -14°C° 0.2 mm 1 mps 746 mmHg 94%
05:00 -15°C° 0.2 mm 2 mps 746 mmHg 95%
06:00 -15°C° 0.4 mm 2 mps 746 mmHg 95%
07:00 -15°C° 0.4 mm 2 mps 747 mmHg 94%
08:00 -16°C° 0.4 mm 3 mps 747 mmHg 94%
09:00 -16°C° 0.3 mm 3 mps 747 mmHg 93%
10:00 -15°C° 0.3 mm 3 mps 747 mmHg 92%
11:00 -16°C° 0.3 mm 4 mps 747 mmHg 91%
12:00 -16°C° 0.1 mm 4 mps 747 mmHg 90%
13:00 -15°C° 0.1 mm 4 mps 748 mmHg 88%
14:00 -15°C° 0.1 mm 4 mps 748 mmHg 87%
15:00 -15°C° 0 mm 3 mps 748 mmHg 87%
16:00 -16°C° 0 mm 3 mps 748 mmHg 87%
17:00 -17°C° 0 mm 3 mps 748 mmHg 87%
18:00 -18°C° 0 mm 3 mps 749 mmHg 89%
19:00 -21°C° 0 mm 3 mps 749 mmHg 91%
20:00 -21°C° 0 mm 2 mps 750 mmHg 93%
21:00 -21°C° 0 mm 2 mps 750 mmHg 93%
22:00 -23°C° 0 mm 2 mps 750 mmHg 93%
23:00 -23°C° 0 mm 2 mps 751 mmHg 94%

Day after tomorrow, 11 March, Thursday

Time Temperature Precipitation Wind Pressure Humidity
00:00 -24°C° 0 mm 2 mps 751 mmHg 94%
01:00 -24°C° 0 mm 2 mps 751 mmHg 94%
02:00 -25°C° 0 mm 2 mps 752 mmHg 94%
03:00 -25°C° 0 mm 2 mps 752 mmHg 93%
04:00 -25°C° 0 mm 2 mps 752 mmHg 93%
05:00 -26°C° 0 mm 2 mps 752 mmHg 93%
06:00 -25°C° 0 mm 2 mps 752 mmHg 90%
07:00 -24°C° 0 mm 2 mps 752 mmHg 88%
08:00 -23°C° 0 mm 2 mps 752 mmHg 86%
09:00 -20°C° 0 mm 2 mps 752 mmHg 83%
10:00 -18°C° 0 mm 2 mps 752 mmHg 79%
11:00 -15°C° 0 mm 2 mps 752 mmHg 75%
12:00 -14°C° 0 mm 2 mps 752 mmHg 74%
13:00 -14°C° 0 mm 3 mps 752 mmHg 72%
14:00 -13°C° 0 mm 3 mps 752 mmHg 70%
15:00 -14°C° 0 mm 3 mps 751 mmHg 75%
16:00 -14°C° 0 mm 2 mps 751 mmHg 79%
17:00 -15°C° 0 mm 2 mps 750 mmHg 84%
18:00 -16°C° 0 mm 2 mps 750 mmHg 86%
19:00 -18°C° 0 mm 3 mps 750 mmHg 88%
20:00 -19°C° 0 mm 3 mps 750 mmHg 90%
21:00 -21°C° 0 mm 3 mps 750 mmHg 90%
22:00 -21°C° 0 mm 3 mps 750 mmHg 89%
23:00 -22°C° 0 mm 3 mps 750 mmHg 88%

12 March, Friday

Time Temperature Precipitation Wind Pressure Humidity
00:00 -22°C° 0 mm 3 mps 750 mmHg 88%
01:00 -23°C° 0 mm 3 mps 749 mmHg 89%
02:00 -23°C° 0 mm 3 mps 749 mmHg 90%
03:00 -23°C° 0 mm 3 mps 749 mmHg 91%
04:00 -24°C° 0 mm 4 mps 748 mmHg 93%
05:00 -23°C° 0 mm 4 mps 748 mmHg 95%
06:00 -22°C° 0 mm 4 mps 747 mmHg 93%
07:00 -20°C° 0 mm 4 mps 747 mmHg 92%
08:00 -20°C° 0 mm 5 mps 746 mmHg 90%
09:00 -17°C° 0 mm 5 mps 746 mmHg 87%
10:00 -15°C° 0 mm 6 mps 745 mmHg 84%
11:00 -12°C° 0 mm 6 mps 745 mmHg 81%
12:00 -12°C° 0 mm 7 mps 744 mmHg 80%
13:00 -9°C° 0 mm 7 mps 744 mmHg 79%
14:00 -8°C° 0 mm 7 mps 743 mmHg 78%
15:00 -8°C° 0 mm 8 mps 743 mmHg 80%
16:00 -10°C° 0 mm 8 mps 742 mmHg 82%
17:00 -10°C° 0 mm 8 mps 742 mmHg 84%
18:00 -10°C° 0.2 mm 8 mps 741 mmHg 86%
19:00 -10°C° 0.2 mm 8 mps 741 mmHg 89%
20:00 -11°C° 0.2 mm 8 mps 741 mmHg 91%
21:00 -11°C° 0.2 mm 7 mps 740 mmHg 91%
22:00 -11°C° 0.2 mm 7 mps 740 mmHg 91%
23:00 -11°C° 0.2 mm 7 mps 740 mmHg 91%

13 March, Saturday

Time Temperature Precipitation Wind Pressure Humidity
00:00 -11°C° 0.3 mm 7 mps 739 mmHg 92%
01:00 -9°C° 0.3 mm 7 mps 739 mmHg 92%
02:00 -9°C° 0.3 mm 7 mps 738 mmHg 92%
03:00 -9°C° 0.3 mm 6 mps 738 mmHg 93%
04:00 -9°C° 0.3 mm 6 mps 738 mmHg 93%
05:00 -7°C° 0.3 mm 5 mps 738 mmHg 94%
06:00 -6°C° 0.3 mm 5 mps 738 mmHg 95%
07:00 -4°C° 0.3 mm 4 mps 738 mmHg 95%
08:00 -3°C° 0.3 mm 4 mps 738 mmHg 96%
09:00 -3°C° 0.1 mm 4 mps 739 mmHg 96%
10:00 -2°C° 0.1 mm 4 mps 739 mmHg 97%
11:00 -1°C° 0.1 mm 4 mps 739 mmHg 97%
12:00 -1°C° 0 mm 4 mps 739 mmHg 97%
13:00 -1°C° 0 mm 4 mps 739 mmHg 97%
14:00 -1°C° 0 mm 4 mps 739 mmHg 97%
15:00 0°C° 0 mm 3 mps 739 mmHg 97%
16:00 0°C° 0 mm 3 mps 739 mmHg 96%
17:00 0°C° 0 mm 3 mps 739 mmHg 96%
18:00 -1°C° 0 mm 4 mps 739 mmHg 95%
19:00 -2°C° 0 mm 4 mps 739 mmHg 95%
20:00 -2°C° 0 mm 4 mps 739 mmHg 95%
21:00 -2°C° 0 mm 4 mps 739 mmHg 94%
22:00 -2°C° 0 mm 4 mps 739 mmHg 93%
23:00 -2°C° 0 mm 4 mps 739 mmHg 92%

14 March, Sunday

Time Temperature Precipitation Wind Pressure Humidity
00:00 -1°C° 0 mm 4 mps 739 mmHg 92%
01:00 -1°C° 0 mm 4 mps 738 mmHg 92%
02:00 -1°C° 0 mm 5 mps 738 mmHg 92%
03:00 -1°C° 0.1 mm 5 mps 738 mmHg 94%
04:00 -1°C° 0.1 mm 5 mps 738 mmHg 95%
05:00 -1°C° 0.1 mm 5 mps 737 mmHg 96%
06:00 -1°C° 0.2 mm 4 mps 738 mmHg 96%
07:00 -1°C° 0.2 mm 4 mps 738 mmHg 97%
08:00 -1°C° 0.2 mm 4 mps 738 mmHg 97%
09:00 -1°C° 0 mm 4 mps 738 mmHg 96%
10:00 -1°C° 0 mm 4 mps 738 mmHg 96%
11:00 0°C° 0 mm 4 mps 738 mmHg 95%
12:00 0°C° 0 mm 4 mps 738 mmHg 95%
13:00 0°C° 0 mm 5 mps 738 mmHg 95%
14:00 0°C° 0 mm 5 mps 738 mmHg 95%
15:00 0°C° 0 mm 5 mps 738 mmHg 95%
16:00 0°C° 0 mm 5 mps 738 mmHg 95%
17:00 -1°C° 0 mm 5 mps 738 mmHg 95%
18:00 -1°C° 0.1 mm 5 mps 738 mmHg 96%
19:00 -1°C° 0.1 mm 5 mps 738 mmHg 96%
20:00 -2°C° 0.1 mm 6 mps 738 mmHg 97%
21:00 0°C° 0.3 mm 5 mps 738 mmHg 97%
22:00 0°C° 0.3 mm 5 mps 738 mmHg 97%
23:00 0°C° 0.3 mm 5 mps 738 mmHg 97%
Show more

We Need Your Consent

Meteoprog and our Service Providers may store and access personal data such as cookies, device identifiers or other similar technologies on your device and process such data to personalise content and ads, as well as provide social media features and to analyse the traffic.

  • Store and/or access information on your device

    Cookies, device identifiers or other information can be stored or accessed on your device for the purposes indicated above.

  • Personalised ads and content, ad and content measurement, audience insights, and products development

    Ads and content can be personalised based on a profile. More data can be added to better personalise ads and content. Ad and content performance can be measured. Insights about the audience who saw the ads and content can be derived. Such data can be used to develop or improve user’s experience, systems and software.

By clicking ‘I Agree’ you will allow the use of indicated cookies, device identifiers, web beacons or other similar technologies. Your settings can be changed in the browser on your device.

For certain purposes, legitimate interests may be relied on, rather than consent. You can read more about this in our Privacy and Cookie Policy.